Weather History for Mosul, Iraq

Change the Weather History Date:

Wednesday, February 20, 2013

  Actual Average Record
Temperature  
Mean Temperature 52 °F -  
Max Temperature 58 °F - - ()
Min Temperature 46 °F - - ()
Degree Days  
Heating Degree Days 13    
Growing Degree Days 2 (Base 50)    
Moisture  
Dew Point 43 °F    
Average Humidity 71    
Maximum Humidity 93    
Minimum Humidity 38    
Precipitation  
Precipitation 0.00 in - - ()
Sea Level Pressure  
Sea Level Pressure 30.09 in    
Wind  
Wind Speed 2 mph ()    
Max Wind Speed 7 mph    
Max Gust Speed -    
Visibility 5.4 miles    
Events      
T = Trace of Precipitation, MM = Missing Value Source: Averaged Metar Reports

Daily Weather History Graph

Daily Weather History Graph

Search for Another Location

Airport:

Trip Planner

Search our weather history database for the weather conditions in past years. The results will help you decide how hot, cold, wet, or windy it might be!

Date:

Astronomy

Feb. 20, 2013 Rise Set
Actual Time 6:49 AM AST 5:53 PM AST
Civil Twilight 6:23 AM AST 6:19 PM AST
Nautical Twilight 5:53 AM AST 6:49 PM AST
Astronomical Twilight 5:23 AM AST 7:19 PM AST
Moon 1:01 PM AST (2/20) 2:46 AM AST (2/20)
Length of Visible Light 11h 56m
Length of Day
11h 04m
Waxing Gibbous, 73% of the Moon is Illuminated
Feb 20
Waxing Gibbous
Feb 25
Full
Mar 5
Last Quarter
Mar 11
New
Mar 19
First Quarter

Hourly Weather History & Observations

Time (AST) Temp. Dew Point Humidity Pressure Visibility Wind Dir Wind Speed Gust Speed Precip Events Conditions
12:00 AM 49 °F 47 °F 88% 30.09 in 6 mi WSW 4.5 mph - -   Clear
12:00 AM 48.2 °F 46.4 °F 93% 30.04 in 3.7 mi NW 4.6 mph - N/A   Unknown
1:00 AM 50.0 °F 46.4 °F 87% 30.04 in 4.3 mi NW 4.6 mph - N/A   Unknown
2:00 AM 48.2 °F 46.4 °F 93% 30.04 in 4.3 mi Calm Calm - N/A   Unknown
4:00 AM 48.2 °F 42.8 °F 82% 30.04 in 5.0 mi South 2.3 mph - N/A   Unknown
5:00 AM 46.4 °F 42.8 °F 87% 30.06 in 5.0 mi WSW 2.3 mph - N/A   Clear
8:00 AM 46.4 °F 42.8 °F 87% 30.09 in 3.7 mi Calm Calm - N/A   Partly Cloudy
9:00 AM 46 °F 43 °F 86% 30.18 in 5 mi WNW 4.5 mph - -   Mist
9:00 AM 46.4 °F 42.8 °F 87% 30.12 in 4.3 mi Variable 2.3 mph - N/A   Partly Cloudy
10:00 AM 50.0 °F 42.8 °F 76% 30.12 in 4.3 mi NNW 4.6 mph - N/A   Scattered Clouds
11:00 AM 51.8 °F 44.6 °F 76% 30.12 in 5.0 mi Calm Calm - N/A   Mostly Cloudy
12:00 PM 55 °F 45 °F 61% 30.16 in 5 mi Calm Calm - -   Haze
12:00 PM 55.4 °F 46.4 °F 72% 30.12 in 5.0 mi Variable 3.5 mph - N/A   Mostly Cloudy
1:00 PM 57.2 °F 44.6 °F 63% 30.12 in 5.0 mi Variable 3.5 mph - N/A   Unknown
2:00 PM 57.2 °F 44.6 °F 63% 30.09 in 6.2 mi NW 6.9 mph - N/A   Mostly Cloudy
3:00 PM 58 °F 39 °F 38% 30.13 in 6 mi Calm Calm - -   Scattered Clouds
3:00 PM 57.2 °F 37.4 °F 48% 30.09 in 6.2 mi NNW 4.6 mph - N/A   Mostly Cloudy
4:00 PM 57.2 °F 44.6 °F 63% 30.09 in 6.2 mi NW 4.6 mph - N/A   Mostly Cloudy
5:00 PM 57.2 °F 37.4 °F 48% 30.06 in 6.2 mi Calm Calm - N/A   Mostly Cloudy
6:00 PM 56 °F 40 °F 45% 30.11 in 6 mi Calm Calm - -   Partly Cloudy
6:00 PM 55.4 °F 41.0 °F 58% 30.06 in 6.2 mi Calm Calm - N/A   Partly Cloudy
7:00 PM 53.6 °F 44.6 °F 72% 30.06 in 6.2 mi Calm Calm - N/A   Scattered Clouds
8:00 PM 53.6 °F 42.8 °F 67% 30.06 in 6.2 mi Variable 2.3 mph - N/A   Mostly Cloudy
9:00 PM 53 °F 42 °F 55% 30.12 in 6 mi Calm Calm - -   Mostly Cloudy
9:00 PM 51.8 °F 44.6 °F 76% 30.06 in - Calm Calm - N/A   Mostly Cloudy
10:00 PM 51.8 °F 42.8 °F 71% 30.06 in 6.2 mi Variable 3.5 mph - N/A   Mostly Cloudy
11:00 PM 50.0 °F 42.8 °F 76% 30.06 in 6.2 mi Calm Calm - N/A   Scattered Clouds